Location: Leimbach
(47.5611°N, 9.1881°E)
Time: 08:33:08
(UTC+00:00)

NOSS 2-1 (E) - Pass Details

Date: 07 June 2020
Orbit: 446 x 1757 km, 63.3° (Epoch: 25 June)

Event Time Altitude Azimuth Distance (km) Brightness Sun altitude
Exits shadow 02:05:20 14° 243° (WSW) 1,345 4.7 -10.7°
Maximum altitude 02:08:03 48° 316° (NW) 617 3.6 -10.4°
Drops below altitude 10° 02:11:43 10° 33° (NNE) 1,761 7.5 -10.0°
Sets 02:14:10 0° 39° (NE) 2,789 9.3 -9.7°
